Yatton Keynell, United Kingdom

10:22 PM GMT on March 24, 2019 (GMT +0000)
Yatton Keynell

Weather History for 03740 - April, 1999

Change the Weather History Date:

Friday, April 16, 1999

  Actual Average Record
Temperature  
Mean Temperature 42 °F -  
Max Temperature 48 °F 57 °F - ()
Min Temperature 35 °F 41 °F - ()
Degree Days  
Heating Degree Days 24    
Moisture  
Dew Point 33 °F    
Average Humidity 77    
Maximum Humidity 93    
Minimum Humidity 50    
Precipitation  
Precipitation 0.00 in 0.07 in - ()
Sea Level Pressure  
Sea Level Pressure 29.60 in    
Wind  
Wind Speed 4 mph ()    
Max Wind Speed 13 mph    
Max Gust Speed -    
Visibility 5.9 miles    
Events Rain    
T = Trace of Precipitation, MM = Missing Value Source: Averaged Metar Reports

Daily Weather History Graph

Daily Weather History Graph

Search for Another Location

Airport or City:

Astronomy

Apr. 16, 1999 Rise Set
Actual Time 6:11 AM BST 8:05 PM BST
Civil Twilight 5:35 AM BST 8:41 PM BST
Nautical Twilight 4:51 AM BST 9:25 PM BST
Astronomical Twilight 4:02 AM BST 10:15 PM BST
Moon 6:48 AM BST (4/16) 8:32 PM BST (4/16)
Length of Visible Light 15h 05m
Length of Day
13h 54m
New Moon, 0% of the Moon is Illuminated
Apr 16
New Moon
Apr 22
First Quarter
Apr 30
Full
May 8
Last Quarter
May 15
New

Hourly Weather History & Observations

Time (BST) Temp. Windchill Dew Point Humidity Pressure Visibility Wind Dir Wind Speed Gust Speed Precip Events Conditions
12:50 AM 39.2 °F 35.0 °F 33.8 °F 81% 29.59 in 6.2 mi West 5.8 mph - N/A   Mostly Cloudy
1:50 AM 37.4 °F 33.8 °F 33.8 °F 87% 29.56 in 6.2 mi WSW 4.6 mph - N/A   Mostly Cloudy
2:50 AM 37.4 °F 34.9 °F 33.8 °F 87% 29.56 in 6.2 mi West 3.5 mph - N/A   Mostly Cloudy
3:50 AM 37.4 °F 34.9 °F 33.8 °F 87% 29.56 in 6.2 mi SSW 3.5 mph - N/A   Mostly Cloudy
4:50 AM 35.6 °F - 33.8 °F 93% 29.56 in 5.0 mi SW 2.3 mph - N/A   Haze
5:50 AM 35.6 °F - 33.8 °F 93% 29.56 in 5.0 mi South 2.3 mph - N/A   Scattered Clouds
6:50 AM 35.6 °F 32.8 °F 33.8 °F 93% 29.56 in 4.3 mi SSW 3.5 mph - N/A   Scattered Clouds
7:50 AM 37.4 °F - 35.6 °F 93% 29.59 in 5.0 mi Calm Calm - N/A   Haze
8:50 AM 41.0 °F - 35.6 °F 81% 29.59 in 5.0 mi Calm Calm - N/A   Haze
9:50 AM 42.8 °F 40.1 °F 33.8 °F 70% 29.59 in 6.2 mi SE 4.6 mph - N/A   Mostly Cloudy
10:50 AM 44.6 °F 43.1 °F 33.8 °F 66% 29.59 in 6.2 mi SE 3.5 mph - N/A   Mostly Cloudy
11:50 AM 44.6 °F 43.1 °F 35.6 °F 71% 29.59 in 6.2 mi SSE 3.5 mph - N/A   Mostly Cloudy
12:50 PM 44.6 °F 38.4 °F 30.2 °F 57% 29.59 in 6.2 mi SSE 12.7 mph - N/A Rain Light Rain Showers
1:50 PM 48.2 °F - 30.2 °F 50% 29.59 in 6.2 mi East 3.5 mph - N/A   Mostly Cloudy
2:50 PM 42.8 °F 36.6 °F 32.0 °F 66% 29.59 in 6.2 mi SSE 11.5 mph - N/A Rain Light Rain Showers
3:50 PM 46.4 °F 43.5 °F 32.0 °F 57% 29.59 in 6.2 mi SE 5.8 mph - N/A   Mostly Cloudy
4:50 PM 44.6 °F 38.4 °F 33.8 °F 66% 29.59 in 6.2 mi East 12.7 mph - N/A   Mostly Cloudy
5:50 PM 44.6 °F 39.2 °F 33.8 °F 66% 29.62 in 6.2 mi East 10.4 mph - N/A   Mostly Cloudy
6:50 PM 44.6 °F 41.4 °F 32.0 °F 61% 29.62 in 6.2 mi NE 5.8 mph - N/A   Mostly Cloudy
7:50 PM 41.0 °F 37.1 °F 33.8 °F 76% 29.62 in 6.2 mi ENE 5.8 mph - N/A   Mostly Cloudy
8:50 PM 39.2 °F 35.0 °F 33.8 °F 81% 29.65 in 6.2 mi NNE 5.8 mph - N/A   Mostly Cloudy
9:50 PM 39.2 °F 35.0 °F 33.8 °F 81% 29.68 in 6.2 mi North 5.8 mph - N/A   Mostly Cloudy
10:50 PM 37.4 °F 31.4 °F 33.8 °F 87% 29.68 in - NNE 8.1 mph - N/A   Clear
11:50 PM 35.6 °F 29.2 °F 33.8 °F 93% 29.68 in - NNE 8.1 mph - N/A   Clear